Weather History for Point Salines, Grenada

Change the Weather History Date:

Thursday, February 13, 2014

  Actual Average Record
Temperature  
Mean Temperature 80 °F -  
Max Temperature 84 °F 83 °F 87 °F (2013)
Min Temperature 76 °F 73 °F 73 °F (1999)
Cooling Degree Days 15    
Growing Degree Days 30 (Base 50)    
Moisture  
Dew Point 74 °F    
Average Humidity 79    
Maximum Humidity 94    
Minimum Humidity 70    
Precipitation  
Precipitation 0.01 in - - ()
Sea Level Pressure  
Sea Level Pressure 29.94 in    
Wind  
Wind Speed 14 mph ()    
Max Wind Speed 21 mph    
Max Gust Speed -    
Visibility 6.5 miles    
Events      
Averages and records for this station are not official NWS values.
T = Trace of Precipitation, MM = Missing Value Source: Averaged Metar Reports

Daily Weather History Graph

Daily Weather History Graph

Search for Another Location

Airport:

Trip Planner

Search our weather history database for the weather conditions in past years. The results will help you decide how hot, cold, wet, or windy it might be!

Date:

Astronomy

Feb. 13, 2014 Rise Set
Actual Time 6:29 AM AST 6:13 PM AST
Civil Twilight 6:07 AM AST 6:35 PM AST
Nautical Twilight 5:42 AM AST 7:00 PM AST
Astronomical Twilight 5:17 AM AST 7:25 PM AST
Moon 5:17 PM AST (2/13) 5:17 AM AST (2/13)
Length of Visible Light 12h 27m
Length of Day
11h 44m
Waxing Gibbous, 98% of the Moon is Illuminated
Feb 13
Waxing Gibbous
Feb 14
Full
Feb 22
Last Quarter
Mar 1
New
Mar 8
First Quarter

Hourly Weather History & Observations

Time (AST) Temp. Heat Index Dew Point Humidity Pressure Visibility Wind Dir Wind Speed Gust Speed Precip Events Conditions
12:00 AM 78.8 °F - 73.4 °F 83% 29.95 in 6.2 mi East 15.0 mph - N/A   Scattered Clouds
1:00 AM 78.8 °F - 73.4 °F 83% 29.92 in 6.2 mi East 16.1 mph - N/A   Scattered Clouds
2:00 AM 78 °F - 72 °F 78% 29.92 in 7 mi East 18.4 mph - -   Widespread Dust
2:00 AM 78.8 °F - 71.6 °F 78% 29.92 in 6.2 mi East 18.4 mph - N/A   Scattered Clouds
3:00 AM 78.8 °F - 73.4 °F 83% 29.89 in 6.2 mi East 16.1 mph - N/A   Scattered Clouds
4:00 AM 77.0 °F - 71.6 °F 83% 29.89 in 6.2 mi East 17.3 mph - N/A   Partly Cloudy
5:00 AM 78 °F - 72 °F 77% 29.91 in 7 mi East 11.5 mph - -   Widespread Dust
5:00 AM 77.0 °F - 71.6 °F 83% 29.89 in 6.2 mi East 11.5 mph - N/A   Partly Cloudy
6:00 AM 77.0 °F - 73.4 °F 89% 29.92 in 6.2 mi East 15.0 mph - N/A   Partly Cloudy
7:00 AM 78.8 °F - 71.6 °F 78% 29.95 in 6.2 mi East 9.2 mph - N/A   Partly Cloudy
8:00 AM 80 °F - 72 °F 70% 29.97 in 7 mi East 17.3 mph - -   Widespread Dust
8:00 AM 80.6 °F 84.6 °F 71.6 °F 74% 29.98 in 6.2 mi East 17.3 mph - N/A   Scattered Clouds
9:00 AM 82.4 °F 88.2 °F 73.4 °F 74% 29.98 in 6.2 mi ESE 17.3 mph - N/A   Scattered Clouds
10:00 AM 82.4 °F 88.2 °F 73.4 °F 74% 29.98 in 6.2 mi East 20.7 mph - N/A   Scattered Clouds
11:00 AM 83 °F - 75 °F 70% 29.99 in 7 mi ESE 17.3 mph - -   Widespread Dust
11:00 AM 84.2 °F 92.3 °F 75.2 °F 74% 29.98 in 6.2 mi ESE 17.3 mph - N/A   Scattered Clouds
12:00 PM 84.2 °F 92.3 °F 75.2 °F 74% 29.98 in 6.2 mi ESE 20.7 mph - N/A   Scattered Clouds
1:00 PM 84.2 °F 92.3 °F 75.2 °F 74% 29.95 in 6.2 mi ESE 20.7 mph - N/A   Mostly Cloudy
2:00 PM 83 °F - 75 °F 70% 29.92 in 9 mi ESE 17.3 mph - -   Widespread Dust
2:00 PM 84.2 °F 92.3 °F 75.2 °F 74% 29.92 in 6.2 mi ESE 17.3 mph - N/A   Scattered Clouds
3:00 PM 82.4 °F 88.2 °F 73.4 °F 74% 29.89 in 6.2 mi ESE 16.1 mph - N/A   Partly Cloudy
4:00 PM 82.4 °F 88.2 °F 73.4 °F 74% 29.89 in 6.2 mi ESE 17.3 mph - N/A   Scattered Clouds
5:00 PM 82 °F - 75 °F 73% 29.90 in 10 mi ESE 16.1 mph - -   Haze
5:00 PM 82.4 °F 89.5 °F 75.2 °F 79% 29.89 in 6.2 mi ESE 16.1 mph - N/A   Mostly Cloudy
6:00 PM 80.6 °F 85.4 °F 73.4 °F 79% 29.92 in 6.2 mi East 11.5 mph - N/A   Mostly Cloudy
7:00 PM 78.8 °F - 73.4 °F 83% 29.92 in 6.2 mi East 9.2 mph - N/A   Scattered Clouds
8:00 PM 79 °F - 74 °F 79% 29.95 in 6 mi East 17.3 mph - -   Mostly Cloudy
8:00 PM 78.8 °F - 73.4 °F 83% 29.95 in 6.2 mi East 17.3 mph - N/A   Mostly Cloudy
9:00 PM 77.0 °F - 75.2 °F 94% 29.95 in 4.3 mi East 9.2 mph - N/A   Scattered Clouds
10:00 PM 77.0 °F - 75.2 °F 94% 29.95 in 6.2 mi East 9.2 mph - N/A   Mostly Cloudy
11:00 PM 78 °F - 74 °F 84% 29.97 in 7 mi East 16.1 mph - -   Widespread Dust
11:00 PM 77.0 °F - 73.4 °F 89% 29.95 in 6.2 mi East 16.1 mph - N/A   Mostly Cloudy